Preview of NWS' New Version of Forecast
This preview is not operational and should not be used for support decisions.
Latest weather observations around

EW3298 Indio (E3298)

Using English Units (Switch to International System of Units)
Date/ Time (PDT) Wind (mph) Vis. (mi) Weather Sky Cond. Temp (°F) Rel. Humidity Wind Chill (°F) Heat Index (°F) Pressure Precip. (in)
Air Dwpt 6 hour Altimeter (inHg) Sea level (inHg) 1 hr 3 hr 6 hr
Max Min
Apr 22 22:17 NW 3   Clear   84 41     22%   81 29.8        
Apr 22 22:02 NW 6   Clear   85 42     22%   82 29.8        
Apr 22 21:47 NW 8   Clear   85 42     22%   82 29.79        
Apr 22 21:32 NW 7   Clear   86 41     21%   83 29.78        
Apr 22 21:17 NW 5   Clear   86 40     20%   83 29.78        
Apr 22 21:02 NW 3   Clear   86 40     20%   83 29.78        
Apr 22 20:47 NW 7   Clear   87 40     19%   84 29.78        
Apr 22 20:32 WNW 4   Clear   88 38     17%   84 29.77        
Apr 22 20:17 WNW 1   Clear   89 35     15%   85 29.76        
Apr 22 20:02 Calm   Clear   90 34     14%   86 29.76        
Apr 22 19:47 NW 1   Clear   91 33     13%   87 29.75        
Apr 22 19:32 Calm   Clear   91 35     14%   87 29.74        
Apr 22 19:17 WSW 1   Clear   91 29     11%   86 29.74        
Apr 22 19:02 Calm   Clear   92 30     11%   87 29.73        
Apr 22 18:47 Calm   Clear   92 34     13%   88 29.73        
Apr 22 18:32 Calm   Clear   94 34     12%   89 29.72        
Apr 22 18:17 SE 4   Clear   94 31     11%   89 29.72        
Apr 22 18:02 SE 4   Clear   95 30     10%   89 29.72        
Apr 22 17:47 SE 5   Clear   95 30     10%   89 29.72        
Apr 22 17:32 SE 5   Clear   96 28     9%   90 29.72        
Apr 22 17:17 SE 3   Clear   97 29     9%   91 29.72        
Apr 22 17:02 ESE 5   Clear   97 26     8%   91 29.72        
Apr 22 16:47 SE 3   Clear   97 26     8%   91 29.72        
Apr 22 16:32 ESE 6   Clear   97 26     8%   91 29.72        
Apr 22 16:17 SE 3   Clear   97 26     8%   91 29.73        
Apr 22 16:02 S 3   Clear   97 29     9%   91 29.73        
Apr 22 15:47 S 2   Clear   97 26     8%   91 29.73        
Apr 22 15:32 SE 5   Clear   98 30     9%   92 29.73        
Apr 22 15:19 ESE 1   Clear   97 26     8%   91 29.74        
Apr 22 15:02 Calm   Clear   97 26     8%   91 29.75        
Apr 22 14:47 SE 1   Clear   97 26     8%   91 29.75        
Apr 22 14:32 SSW 2   Clear   98 27     8%   92 29.76        
Apr 22 14:17 S 1   Clear   97 31     10%   91 29.77        
Apr 22 14:02 Calm   Clear   96 28     9%   90 29.78        
Apr 22 13:46 SSW 2   Clear   96 31     10%   90 29.78        
Apr 22 13:31 SSE 2   Clear   95 27     9%   89 29.79        
Apr 22 13:16 S 4   Clear   95 30     10%   89 29.79        
Apr 22 13:01 ESE 3   Clear   94 27     9%   88 29.8        
Apr 22 12:46 ESE 1   Clear   94 24     8%   88 29.8        
Apr 22 12:31 SSW 3   Clear   94 29     10%   89 29.81        
Apr 22 12:16 Calm   Clear   93 31     11%   88 29.82        
Apr 22 12:01 WSW 1   Clear   92 30     11%   87 29.83        
Apr 22 11:46 Calm   Clear   92 30     11%   87 29.83        
Apr 22 11:31 Calm   Clear   91 29     11%   86 29.83        
Apr 22 11:16 Calm   Clear   90 31     12%   86 29.84        
Apr 22 11:01 Calm   Clear   89 32     13%   85 29.85        
Apr 22 10:46 Calm   Clear   89 37     16%   85 29.85        
Apr 22 10:31 W 2   Clear   88 35     15%   84 29.86        
Apr 22 10:16 Calm   Clear   87 35     16%   83 29.86        
Apr 22 10:01 W 2   Clear   86 35     16%   83 29.86        
Apr 22 09:46 W 4   Clear   85 35     17%   82 29.86        
Apr 22 09:31 WNW 2   Clear   85 37     18%   82 29.86        
Apr 22 09:16 W 3   Clear   83 36     19%   81 29.87        
Apr 22 09:01 WNW 3   Clear   82 37     20%   80 29.87        
Apr 22 08:46 WNW 4   Clear   80 37     21%   79 29.87        
Apr 22 08:31 WNW 2   Clear   79 36     21%   78 29.87        
Apr 22 08:16 WNW 1   Clear   78 36     22%   77 29.87        
Apr 22 08:02 WNW 3   Clear   77 35     22%   75 29.87        
Apr 22 07:46 Calm   Clear   75 37     25%   73 29.87        
Apr 22 07:31 Calm   Clear   75 38     26%   73 29.87        
Apr 22 07:16 Calm   Clear   74 36     25%   72 29.87        
Apr 22 07:00 Calm   Clear   73 35     25%   71 29.86        
Apr 22 06:46 Calm   Clear   71 34     26%   69 29.85        
Apr 22 06:30 Calm   Clear   69 35     28%     29.85        
Apr 22 06:15 Calm   Clear   71 35     27%   69 29.85        
Apr 22 06:00 Calm   Clear   72 35     26%   70 29.85        
Apr 22 05:45 Calm   Clear   73 34     24%   71 29.84        
Apr 22 05:30 Calm   Clear   74 35     24%   72 29.84        
Apr 22 05:15 Calm   Clear   74 34     23%   72 29.83        
Apr 22 05:00 W 2   Clear   75 34     22%   73 29.84        
Apr 22 04:45 W 2   Clear   76 34     22%   74 29.84        
Apr 22 04:30 W 1   Clear   76 33     21%   74 29.84        
Apr 22 04:15 W 1   Clear   76 34     22%   74 29.84        
Apr 22 04:00 W 2   Clear   76 34     22%   74 29.84        
Apr 22 03:45 WNW 1   Clear   76 36     23%   74 29.83        
Apr 22 03:30 WNW 1   Clear   75 36     24%   73 29.84        
Apr 22 03:15 Calm   Clear   76 36     23%   74 29.84        
Apr 22 03:00 WNW 1   Clear   76 33     21%   74 29.84        
Apr 22 02:45 WNW 1   Clear   76 36     23%   74 29.84        
Apr 22 02:30 WNW 2   Clear   77 36     23%   75 29.85        
Apr 22 02:15 Calm   Clear   77 35     22%   75 29.85        
Apr 22 02:00 WNW 1   Clear   77 35     22%   75 29.85        
Notice The following observation data may not be complete
Apr 22 01:45 WNW 1   Clear     34      %     29.85        
Apr 22 01:30 WNW 1   Clear   77 35     22%   75 29.86        
Apr 22 01:15 Calm   Clear   78 37     23%   77 29.87        
Apr 22 01:00 Calm   Clear   78 36     22%   77 29.88        
Apr 22 00:46 Calm   Clear   79 37     22%   78 29.88        
Apr 22 00:30 Calm   Clear   79 38     23%   78 29.88        
Apr 22 00:15 Calm   Clear   79 38     23%   78 29.88        
Apr 22 00:00 WNW 2   Clear   80 37     21%   79 29.88        
Apr 21 23:45 WNW 3   Clear   81 36     20%   80 29.88        
Apr 21 23:30 WNW 1   Clear   81 36     20%   80 29.88        
Apr 21 23:15 WNW 2   Clear   82 36     19%   80 29.88        
Apr 21 23:00 WNW 1   Clear   83 36     19%   81 29.89        
Apr 21 22:45 W 3   Clear   82 36     19%   80 29.89        
Apr 21 22:30 SSE 1   Clear   82 34     18%   80 29.89        
Apr 21 22:15 Calm   Clear   82 34     18%   80 29.89        
Apr 21 22:00 Calm   Clear   81 35     19%   80 29.89        
Apr 21 21:45 Calm   Clear   82 37     20%   80 29.89        
Apr 21 21:30 Calm   Clear   82 34     18%   80 29.89        
Apr 21 21:15 SE 2   Clear   82 36     19%   80 29.88        
Apr 21 21:00 Calm   Clear   82 36     19%   80 29.88        
Apr 21 20:45 Calm   Clear   83 35     18%   80 29.88        
Apr 21 20:30 Calm   Clear   83 36     19%   81 29.87        
Apr 21 20:15 Calm   Clear   83 36     19%   81 29.86        
Apr 21 19:59 Calm   Clear   83 36     19%   81 29.86        
Apr 21 19:45 Calm   Clear   84 37     19%   81 29.85        
Apr 21 19:29 Calm   Clear   85 35     17%   82 29.85        
Apr 21 19:15 Calm   Clear   86 35     16%   83 29.85        
Apr 21 18:59 Calm   Clear   87 34     15%   83 29.85        
Apr 21 18:45 Calm   Clear   88 35     15%   84 29.85        
Apr 21 18:32 Calm   Clear   88 33     14%   84 29.85        
Apr 21 18:14 SE 1   Clear   88 35     15%   84 29.85        
Apr 21 17:59 SSE 2   Clear   88 33     14%   84 29.85        
Apr 21 17:44 SE 2   Clear   88 33     14%   84 29.85        
Apr 21 17:29 SSE 3   Clear   89 35     15%   85 29.85        
Apr 21 17:14 SE 3   Clear   90 31     12%   86 29.86        
Apr 21 16:59 SE 1   Clear   91 31     12%   87 29.85        
Apr 21 16:44 ESE 3   Clear   91 29     11%   86 29.86        
Apr 21 16:29 SE 2   Clear   91 29     11%   86 29.86        
Apr 21 16:14 ESE 4   Clear   91 31     12%   87 29.86        
Apr 21 15:59 SSE 4   Clear   92 32     12%   87 29.87        
Apr 21 15:44 SE 2   Clear   91 31     12%   87 29.88        
Apr 21 15:29 ESE 2   Clear   91 35     14%   87 29.89        
Apr 21 15:14 SE 4   Clear   90 33     13%   86 29.9        
Apr 21 14:59 SE 7   Clear   90 33     13%   86 29.9        
Apr 21 14:44 ESE 5   Clear   89 35     15%   85 29.91        
Apr 21 14:29 SSE 5   Clear   89 35     15%   85 29.91        
Apr 21 14:14 SE 6   Clear   89 34     14%   85 29.92        
Apr 21 13:59 ESE 4   Clear   89 34     14%   85 29.93        
Apr 21 13:44 SE 4   Clear   90 39     17%   86 29.93        
Apr 21 13:29 ESE 6   Clear   89 40     18%   85 29.93        
Apr 21 13:14 SSE 2   Clear   90 36     15%   86 29.94        
Apr 21 12:59 SSE 1   Clear   89 38     17%   85 29.95        
Apr 21 12:44 SSE 3   Clear   87 38     18%   84 29.96        
Apr 21 12:29 S 2   Clear   86 38     18%   83 29.96        
Apr 21 12:14 Calm   Clear   86 36     17%   83 29.97        
Apr 21 11:59 Calm   Clear   85 37     18%   82 29.98        
Apr 21 11:44 Calm   Clear   84 37     19%   81 29.98        
Apr 21 11:29 Calm   Clear   83 35     18%   80 29.99        
Apr 21 11:16 Calm   Clear   82 39     22%   80 29.99        
Apr 21 10:58 SW 1   Clear   81 39     22%   80 30        
Apr 21 10:43 Calm   Clear   80 41     25%   79 30.01        
Apr 21 10:28 Calm   Clear   78 42     28%   77 30.01        
Apr 21 10:13 Calm   Clear   78 41     27%   77 30.02        
Apr 21 09:58 Calm   Clear   77 40     27%   76 30.02        
Apr 21 09:43 Calm   Clear   76 42     30%   75 30.02        
Apr 21 09:28 WSW 1   Clear   75 42     31%   74 30.02        
Apr 21 09:13 Calm   Clear   75 42     31%   74 30.03        
Apr 21 08:58 Calm   Clear   74 42     32%   73 30.03        
Apr 21 08:43 Calm   Clear   72 43     35%   71 30.03        
Apr 21 08:28 Calm   Clear   71 40     32%   69 30.02        
Apr 21 08:13 Calm   Clear   71 40     32%   69 30.02        
Apr 21 07:58 Calm   Clear   69 39     34%     30.02        
Apr 21 07:43 Calm   Clear   68 40     36%     30.01        
Apr 21 07:28 Calm   Clear   66 40     38%     30.01        
Apr 21 07:13 Calm   Clear   65 40     40%     30.01        
Apr 21 06:58 Calm   Clear   65 41     41%     30        
Apr 21 06:43 Calm   Clear   64 39     40%     29.99        
Apr 21 06:28 Calm   Clear   63 40     42%     29.99        
Apr 21 06:13 Calm   Clear   63 40     43%     29.99        
Apr 21 05:58 Calm   Clear   63 41     45%     29.99        
Apr 21 05:43 Calm   Clear   63 41     45%     29.99        
Apr 21 05:28 Calm   Clear   64 41     43%     29.98        
Apr 21 05:13 Calm   Clear   64 40     42%     29.98        
Apr 21 04:58 Calm   Clear   64 40     42%     29.98        
Apr 21 04:43 Calm   Clear   65 41     42%     29.98        
Apr 21 04:28 Calm   Clear   65 41     41%     29.98        
Apr 21 04:13 Calm   Clear   67 41     39%     29.97        
Apr 21 04:00 Calm   Clear   67 40     37%     29.97        
Apr 21 03:43 Calm   Clear   68 40     36%     29.97        
Apr 21 03:28 Calm   Clear   69 41     36%     29.97        
Apr 21 03:13 W 4   Clear   69 41     36%     29.97        
Apr 21 02:58 W 2   Clear   69 42     37%     29.96        
Apr 21 02:42 Calm   Clear   70 40     34%     29.97        
Apr 21 02:27 Calm   Clear   71 40     33%   69 29.96        
Apr 21 02:12 W 4   Clear   72 41     33%   70 29.96        
Apr 21 01:57 W 3   Clear   72 41     32%   70 29.96        
Apr 21 01:42 W 3   Clear   71 40     33%   69 29.97        
Apr 21 01:27 W 2   Clear   71 41     34%   69 29.98        
Apr 21 01:12 W 4   Clear   71 41     34%   69 29.98        
Apr 21 00:57 WNW 3   Clear   72 41     32%   70 29.99        
Apr 21 00:42 WNW 1   Clear   73 41     32%   72 29.99        
Apr 21 00:27 WNW 2   Clear   73 41     31%   71 30        
Apr 21 00:12 WNW 1   Clear   73 41     31%   71 30        
Apr 20 23:57 W 3   Clear   73 41     31%   71 30        
Apr 20 23:42 WNW 2   Clear   73 41     31%   71 29.99        
Apr 20 23:27 Calm   Clear   74 41     30%   73 29.99        
Apr 20 23:12 WNW 1   Clear   74 41     31%   73 29.98        
Apr 20 22:57 WNW 1   Clear   74 41     31%   73 29.98        
Apr 20 22:42 Calm   Clear   75 42     31%   74 29.98        
Apr 20 22:27 NW 4   Clear   75 42     31%   74 29.98        
Apr 20 22:12 Calm   Clear   75 41     30%   74 29.98        
Apr 20 21:57 WNW 3   Clear   76 41     29%   75 29.98        
Apr 20 21:42 WNW 3   Clear   76 41     29%   75 29.97        
Apr 20 21:27 W 1   Clear   77 41     28%   76 29.97        
Apr 20 21:12 WNW 2   Clear   77 41     28%   76 29.97        
Apr 20 20:57 WNW 1   Clear   78 43     29%   77 29.97        
Apr 20 20:43 Calm   Clear   79 44     29%   78 29.96        
Apr 20 20:27 NW 2   Clear   80 43     27%   79 29.96        
Apr 20 20:12 ESE 2   Clear   80 41     25%   79 29.95        
Apr 20 19:57 Calm   Clear   81 40     23%   80 29.94        
Apr 20 19:42 NW 1   Clear   81 40     23%   80 29.93        
Apr 20 19:27 Calm   Clear   83 42     24%   81 29.91        
Apr 20 19:12 Calm   Clear   86 29     13%   83 29.9        
Apr 20 18:57 Calm   Clear   87 26     11%   83 29.9        
Apr 20 18:42 Calm   Clear   88 29     12%   84 29.89        
Apr 20 18:27 Calm   Clear   88 29     12%   84 29.89        
Apr 20 18:12 Calm   Clear   88 29     12%   84 29.89        
Apr 20 17:57 Calm   Clear   88 29     12%   84 29.9        
Apr 20 17:42 Calm   Clear   88 29     12%   84 29.89        
Apr 20 17:27 Calm   Clear   88 29     12%   84 29.9        
Apr 20 17:12 Calm   Clear   88 29     12%   84 29.9        
Apr 20 16:57 WNW 2   Clear   88 31     13%   84 29.9        
Apr 20 16:42 Calm   Clear   87 30     13%   83 29.9        
Apr 20 16:27 WSW 1   Clear   87 30     13%   83 29.9        
Apr 20 16:12 W 4   Clear   87 32     14%   83 29.9        
Apr 20 15:57 WSW 2   Clear   86 31     14%   83 29.91        
Apr 20 15:42 Calm   Clear   86 33     15%   83 29.91        
Apr 20 15:27 WNW 2   Clear   85 34     16%   82 29.92        
Apr 20 15:12 Calm   Clear   85 37     18%   82 29.92        
Apr 20 14:56 Calm   Clear   84 34     17%   81 29.93        
Apr 20 14:42 WSW 2   Clear   83 34     17%   80 29.94        
Apr 20 14:26 Calm   Clear   84 34     17%   81 29.94        
Apr 20 14:11 W 3   Clear   82 34     18%   80 29.95        
Apr 20 13:56 Calm   Clear   81 33     18%   80 29.96        
Apr 20 13:41 Calm   Clear   81 35     19%   80 29.97        
Apr 20 13:27 N 1   Clear   79 32     18%   77 29.97        
Apr 20 13:11 NNW 1   Clear   78 35     21%   76 29.98        
Apr 20 12:56 Calm   Clear   77 36     23%   75 29.98        
Apr 20 12:41 Calm   Clear   76 37     24%   74 29.99        
Apr 20 12:26 Calm   Clear   75 38     26%   73 30        
Apr 20 12:11 Calm   Clear   74 37     26%   72 30.01        
Apr 20 11:56 Calm   Clear   74 38     27%   72 30.01        
Apr 20 11:41 Calm   Clear   73 38     28%   71 30.01        
Apr 20 11:26 Calm   Clear   72 38     29%   70 30.02        
Apr 20 11:11 Calm   Clear   71 37     29%   69 30.02        
Apr 20 10:56 Calm   Clear   70 37     30%     30.02        
Apr 20 10:41 Calm   Clear   69 36     30%     30.03        
Apr 20 10:26 Calm   Clear   69 37     31%     30.03        
Apr 20 10:11 Calm   Clear   68 36     31%     30.03        
Apr 20 09:56 Calm   Clear   68 39     34%     30.03        
Apr 20 09:41 Calm   Clear   67 38     34%     30.03        
Apr 20 09:26 WNW 1   Clear   66 40     38%     30.03        
Apr 20 09:11 WNW 2   Clear   65 39     39%     30.03        
Apr 20 08:56 Calm   Clear   64 40     41%     30.03        
Apr 20 08:41 WNW 8   Clear   63 40     42%     30.03        
Apr 20 08:25 WNW 7   Clear   62 39     43%     30.03        
Apr 20 08:10 WNW 6   Clear   62 40     45%     30.03        
Apr 20 07:55 WNW 8   Clear   61 40     45%     30.02        
Apr 20 07:40 WNW 5   Clear   61 40     46%     30.02        
Apr 20 07:25 WNW 7   Clear   60 40     47%     30.03        
Apr 20 07:10 WNW 6   Clear   59 39     48%     30.03        
Apr 20 06:55 WNW 6   Clear   58 39     49%     30.02        
Apr 20 06:40 WNW 4   Clear   58 39     50%     30.02        
Apr 20 06:25 WNW 6   Clear   58 39     49%     30.01        
Apr 20 06:11 WNW 4   Clear   58 39     50%     30.01        
Apr 20 05:55 NW 4   Clear   58 39     49%     30.01        
Apr 20 05:40 WNW 8   Clear   58 38     48%     30        
Apr 20 05:25 NW 7   Clear   59 39     47%     30        
Apr 20 05:10 WNW 6   Clear   59 39     47%     29.99        
Apr 20 04:55 NW 5   Clear   59 39     48%     29.99        
Apr 20 04:40 NW 7   Clear   59 39     48%     29.98        
Apr 20 04:25 WNW 8   Clear   59 39     47%     29.98        
Apr 20 04:10 WNW 9   Clear   59 39     47%     29.97        
Apr 20 03:55 NW 9   Clear   59 38     46%     29.97        
Apr 20 03:40 WNW 6   Clear   59 38     45%     29.97        
Apr 20 03:25 WNW 7   Clear   60 39     45%     29.96        
Apr 20 03:10 WNW 8   Clear   60 39     45%     29.96        
Apr 20 02:55 NW 5   Clear   60 39     45%     29.96        
Apr 20 02:40 WNW 8   Clear   60 39     45%     29.95        
Apr 20 02:25 NW 8   Clear   60 38     44%     29.94        
Apr 20 02:10 NW 1   Clear   60 37     43%     29.93        
Apr 20 01:55 WNW 6   Clear   60 38     44%     29.93        
Apr 20 01:40 WNW 5   Clear   60 37     43%     29.93        
Apr 20 01:25 WNW 6   Clear   61 38     42%     29.94        
Apr 20 01:10 WNW 8   Clear   61 36     40%     29.93        
Apr 20 00:55 NW 5   Clear   61 36     40%     29.93        
Apr 20 00:39 WNW 8   Clear   62 37     40%     29.93        
Apr 20 00:24 WNW 5   Clear   61 37     41%     29.93        
Apr 20 00:09 WNW 5   Clear   61 38     42%     29.93        
Apr 19 23:56 NW 7   Clear   62 38     41%     29.92        
Apr 19 23:39 NW 6   Clear   62 38     41%     29.92        
Apr 19 23:24 NW 9   Clear   62 39     42%     29.92        
Apr 19 23:09 NW 9   Clear   62 39     42%     29.92        
Apr 19 22:54 NNW 6   Clear   62 38     41%     29.93        
Apr 19 22:24 NNW 11   Clear   63 38     39%     29.93        
Jun 12 04:49 WNW 5   Clear   66 46     48%     29.83        
Jun 11 22:31 NNW 12   Clear   69 47     45%     29.79        
Jun 11 21:16 NW 10   Clear   72 47     41%   71 29.75        
Jun 11 19:01 NW 9   Clear   81 47     30%   80 29.69        
Jun 11 17:00 NW 9   Clear   86 43     22%   83 29.66        
Jun 11 16:30 NW 9   Clear   87 45     23%   84 29.67        
Jun 11 16:16 NNW 8   Clear   87 46     24%   84 29.67        
Jun 11 15:16 NW 11   Clear   86 44     23%   83 29.68        
Jun 11 12:45 NW 11   Clear   83 47     28%   81 29.72        
Jun 11 11:30 NW 7   Clear   81 47     31%   80 29.72        
Jun 11 10:30 WNW 9   Clear   79 47     33%   78 29.72        
Jun 11 05:14 WNW 2   Clear   67 47     48%     29.66        
Jun 11 04:59 NW 6   Clear   68 48     48%     29.65        
Jun 11 03:44 WNW 6   Clear   69 48     48%     29.64        
Jun 11 00:13 NW 9   Clear   73 50     44%   72 29.63        
Jun 10 22:13 NNW 13   Clear   75 50     42%   74 29.63        
Jun 10 21:43 NW 11   Clear   77 51     40%   76 29.62        
Jun 10 21:13 NNW 8   Clear   78 50     38%   77 29.62        
Jun 10 19:13 NW 11   Clear   85 52     32%   83 29.6        
Jun 10 18:28 NW 8   Clear   88 51     28%   85 29.59        
Jun 10 17:43 NW 16   Clear   90 47     23%   87 29.59        
Jun 10 16:43 WNW 5   Clear   94 41     16%   90 29.59        
Jun 10 14:43 WNW 2   Clear   94 41     16%   90 29.63        
Jun 10 10:14 W 4   Clear   85 47     27%   83 29.7        
Jun 10 09:12 WNW 7   Clear   83 47     28%   81 29.7        
Jun 09 21:56 NW 8   Clear   82 52     36%   81 29.67        
Jun 09 17:11 NW 2   Clear   99 51     20%   96 29.62        
Jun 09 14:25 Calm   Clear   99 40     13%   94 29.68        
Jun 09 13:55 WNW 4   Clear   99 40     13%   94 29.68        
Jun 09 07:39 W 2   Clear   79 50     37%   78 29.75        
Jun 09 02:54 WNW 9   Clear   80 42     26%   79 29.73        
Jun 09 00:39 NW 3   Clear   83 32     16%   80 29.73        
Jun 08 15:23 W 5   Clear   101 41     13%   96 29.72        
Jun 08 14:38 Calm   Clear   99 45     16%   95 29.74        
Jun 08 13:23 NW 1   Clear   95 45     18%   91 29.78        
Jun 08 12:07 Calm   Clear   91 51     26%   88 29.83        
Jun 08 08:07 Calm   Clear   77 55     47%   77 29.85        
Jun 08 07:52 Calm   Clear   76 55     48%   76 29.84        
Jun 08 06:52 Calm   Clear   74 56     54%   74 29.81        
Jun 08 05:36 WNW 2   Clear   73 55     53%   72 29.79        
Jun 08 03:51 W 10   Clear   75 55     49%   75 29.77        
Jun 08 02:36 WNW 9   Clear   77 54     45%   77 29.76        
Jun 07 23:51 WNW 7   Clear   82 54     38%   81 29.75        
Jun 07 22:51 WNW 6   Clear   84 56     38%   83 29.75        
Jun 07 20:06 Calm   Clear   95 43     17%   91 29.7        
Jun 07 15:50 SE 3   Clear   97 42     15%   93 29.73        
Jun 07 12:20 Calm   Clear   91 49     24%   88 29.81        
Jun 07 12:05 ESE 1   Clear   91 50     25%   88 29.82        
Jun 07 09:19 Calm   Clear   83 58     42%   83 29.83        
Notice The following observation data may not be complete
Jun 07 09:04 Calm   Clear     58      %     29.83        
Jun 06 07:32 Calm   Clear   81 55     41%   81 29.8        
Jun 06 07:17 Calm   Clear   81 55     41%   81 29.8        
Jun 06 07:02 Calm   Clear   80 55     42%   80 29.79        
Jun 05 23:46 Calm   Clear   87 55     34%   85 29.73        
Jun 05 22:46 Calm   Clear   90 53     29%   88 29.72        
Jun 05 20:46 Calm   Clear   97 54     24%   95 29.67        
Jun 05 20:31 Calm   Clear   98 55     24%   96 29.66        
Jun 05 15:46 S 7   Clear   102 46     15%   98 29.66        
Jun 05 15:01 Calm   Clear   103 46     15%   99 29.67        
Jun 05 14:46 SW 5   Clear   103 46     15%   99 29.67